Flag Weather past 2 weeks in Sion, Valais, Switzerland

Now
42 °F

Quite cool.


Feels Like: 42 °F
Forecast: 42 / 55 °F
Wind: 1 mph from East

Location: Sion

Current Time: Nov 28, 2014 at 2:59:26 AM

Latest Report: Nov 28, 2014 at 2:00 AM


Visibility: N/A

Pressure: 29.81 "Hg

Humidity: 85%

Dew point: 38 °F

Location of SionLocation

Historic Weather in Sion — Graph

°F

Sion temperature yesterday

Maximum temperature yesterday: 59 °F (at 1:00 PM)
Minimum temperature yesterday: 42 °F (at 8:00 PM)
Average temperature yesterday: 47 °F

Past Weeks' High & Low Weather Summary

 TemperatureHumidityPressure
High59 °F (Nov 14, 2:00 PM)100% (Nov 16, 1:00 AM)30.36 "Hg (Nov 16, 1:00 AM)
Low34 °F (Nov 19, 6:00 AM)38% (Nov 20, 3:00 PM)29.58 "Hg (Nov 15, 4:00 PM)
Average45 °F82%30.00 "Hg
* Reported Nov 13 1:00 AM — Nov 28 1:00 AM, Sion, Weather by CustomWeather, © 2014

Note: Actual official high and low records may vary slightly from our data, if they occured in-between our weather recording intervals... More about our weather records

Advertising

Sion weather history for previous 24 hours

 ConditionsComfort  
Time TempWeatherWind HumidityBarometerVisibility
1:00 AM
Nov 28
45 °FCool.2 mph79%29.80 "HgN/A
12:00 AM44 °FQuite cool.1 mph84%29.80 "HgN/A
11:00 PM
Nov 27
44 °FQuite cool.2 mph85%29.80 "HgN/A
10:00 PM44 °FOvercast.2 mph84%29.81 "Hg12 mi
9:00 PM43 °FQuite cool.2 mph86%29.81 "HgN/A
8:00 PM42 °FQuite cool.1 mph90%29.81 "HgN/A
7:00 PM45 °FClear.1 mph87%29.79 "Hg16 mi
6:00 PM47 °FCool.2 mph84%29.77 "HgN/A
5:00 PM48 °FCool.2 mph85%29.76 "HgN/A
4:00 PM52 °FPassing clouds.8 mph75%29.73 "Hg16 mi
3:00 PM55 °FCool.7 mph64%29.71 "HgN/A
2:00 PM57 °FRefreshingly cool.9 mph54%29.71 "HgN/A
1:00 PM59 °FRefreshingly cool.No wind48%29.72 "HgN/A
12:00 PM55 °FCool.1 mph62%29.76 "HgN/A
11:00 AM52 °FCool.5 mph66%29.79 "HgN/A
10:00 AM46 °FCool.3 mph78%29.82 "HgN/A
9:00 AM45 °FQuite cool.3 mph80%29.83 "HgN/A
8:00 AM44 °FQuite cool.7 mph81%29.83 "HgN/A
7:00 AM44 °FPassing clouds.7 mph79%29.83 "Hg12 mi
6:00 AM43 °FQuite cool.6 mph85%29.84 "HgN/A
5:00 AM44 °FQuite cool.6 mph82%29.85 "HgN/A
4:00 AM43 °FPassing clouds.8 mph86%29.87 "Hg9 mi
3:00 AM43 °FQuite cool.8 mph90%29.88 "HgN/A
2:00 AM44 °FQuite cool.8 mph90%29.89 "HgN/A
Weather by CustomWeather, © 2014

See weather overviewHow to use our weather pages